Flag for USA

Past Weather in Des Moines, Iowa, USA — Yesterday and Last 2 Weeks

Now
60 °F

Overcast.


Feels Like: 60 °F
Forecast: 75 / 49 °F
Wind: 15 mph from South

Location: Des Moines International Airport
Current Time: Sep 20, 2020 at 10:26:37 am
Latest Report: Sep 20, 2020 at 9:54 am
Visibility: 10 mi
Pressure30.27 "Hg
Humidity: 58%
Dew Point: 45 °F
Location of Des MoinesLocation

Past Weather in Des Moines — Graph

°F

Des Moines Temperature Yesterday

Maximum temperature yesterday: 69 °F (at 2:54 pm)
Minimum temperature yesterday: 49 °F (at 5:54 am)
Average temperature yesterday: 59 °F

High & Low Weather Summary for the Past Weeks

 TemperatureHumidityPressure
High93 °F (Sep 6, 2:54 pm)100% (Sep 12, 12:01 am)30.38 "Hg (Sep 12, 12:01 am)
Low46 °F (Sep 8, 6:54 pm)27% (Sep 7, 3:54 pm)29.72 "Hg (Sep 6, 5:54 pm)
Average61 °F75%30.13 "Hg
* Reported Sep 5 8:54 am — Sep 20 8:54 am, Des Moines. Weather by CustomWeather, © 2020

Note: Actual official high and low records may vary slightly from our data, if they occured in-between our weather recording intervals... More about our weather records

Des Moines Weather History for the Previous 24 Hours

Scroll right to see more
 ConditionsComfort  
Time TempWeatherWind HumidityBarometerVisibility
8:54 am
Sun, Sep 20
53 °FPartly sunny.10 mph72%30.27 "Hg10 mi
7:54 am51 °FScattered clouds.8 mph74%30.27 "Hg10 mi
6:54 am50 °FPassing clouds.7 mph80%30.26 "Hg10 mi
5:54 am51 °FPassing clouds.6 mph77%30.25 "Hg10 mi
4:54 am52 °FPassing clouds.6 mph75%30.24 "Hg10 mi
3:54 am53 °FPassing clouds.7 mph74%30.23 "Hg10 mi
2:54 am52 °FPassing clouds.8 mph77%30.23 "Hg10 mi
1:54 am54 °FPassing clouds.9 mph74%30.23 "Hg10 mi
12:54 am55 °FPassing clouds.10 mph72%30.23 "Hg10 mi
11:54 pm
Sat, Sep 19
56 °FPartly cloudy.10 mph72%30.23 "Hg10 mi
10:54 pm56 °FPartly cloudy.8 mph75%30.22 "Hg10 mi
9:54 pm58 °FPartly cloudy.9 mph70%30.22 "Hg10 mi
8:54 pm60 °FMostly cloudy.9 mph65%30.21 "Hg10 mi
7:54 pm61 °FMostly cloudy.7 mph62%30.19 "Hg10 mi
6:54 pm64 °FMostly cloudy.8 mph56%30.19 "Hg10 mi
5:54 pm67 °FOvercast.14 mph49%30.19 "Hg10 mi
4:54 pm68 °FMostly cloudy.15 mph49%30.19 "Hg10 mi
3:54 pm69 °FOvercast.14 mph47%30.20 "Hg10 mi
2:54 pm69 °FOvercast.15 mph47%30.21 "Hg10 mi
1:54 pm68 °FOvercast.18 mph47%30.24 "Hg10 mi
12:54 pm66 °FOvercast.16 mph50%30.27 "Hg10 mi
11:54 am63 °FOvercast.13 mph54%30.29 "Hg10 mi
10:54 am60 °FPartly sunny.13 mph60%30.32 "Hg10 mi
Weather by CustomWeather, © 2020

See weather overview